Location: *
(34.8620°S, 39.3380°E)
Time: 00:00:06
(UTC+00:00)

SAOCOM 1-B - Pass Details

Date: 02 June 2022
Orbit: 621 x 623 km, 97.9° (Epoch: 01 July)

Event Time Altitude Azimuth Distance (km) Brightness Sun altitude
Rises 15:00:08 0° 6° (N) 2,890 ? -8.5°
Reaches altitude 10° 15:02:19 10° 3° (N) 1,992 ? -8.9°
Maximum altitude 15:06:37 65° 281° (W) 694 ? -9.8°
Drops below altitude 10° 15:11:00 10° 199° (SSW) 2,021 ? -10.6°
Sets 15:13:14 0° 195° (SSW) 2,937 ? -11.0°
